User: anonymous   Login
Location: Agadir-Ikarkaouin
(31.1503°N, 9.0246°W)
Time: 20:14:24
(UTC+00:00)
Language:

Cosmos 2263 Rocket - Orbit

View from above orbital plane
View from above orbital plane
View from above satellite
View from above satellite

Ground track
Ground track

The orbit data is extracted from the following two-line orbital elements,

1 22803U 93059B   20332.13835266 -.00000084  00000-0 -17902-4 0  9992
2 22803  70.9875 116.4211 0019590 268.5929  91.2950 14.16828916406602
Epoch (UTC): 27 November 2020 03:19:13
Eccentricity: 0.0019590
inclination: 70.9875°
perigee height: 822 km
apogee height: 850 km
right ascension of ascending node: 116.4211°
argument of perigee: 268.5929°
revolutions per day: 14.16828916
mean anomaly at epoch: 91.2950°
orbit number at epoch: 40660

The dashed part of the orbit path shows where the satellite is in the earth's shadow,  

DLR